Location: Vancouver
(49.2500°N, 123.1330°W)
Time: 23:49:24
(UTC-07:00)

Vanguard 2 Rocket - Visible Passes

Search period start: 02 September 2015 00:00
Search period end: 12 September 2015 00:00
Orbit: 554 x 3331 km, 32.9° (Epoch: 02 September)

Date Brightness Start Highest point End Pass type
(mag) Time Alt. Az. Time Alt. Az. Time Alt. Az.
02 Sep 10.5 03:09:40 15° S 03:17:48 21° SE 03:31:08 10° E visible
02 Sep 10.3 05:16:04 10° SW 05:33:07 39° SSE 05:49:17 10° E visible
03 Sep 10.6 02:13:55 13° SSE 02:17:49 15° SE 02:27:27 10° ESE visible
03 Sep 10.3 04:19:45 16° SSW 04:32:24 34° SSE 04:48:43 10° E visible
04 Sep 10.2 03:23:58 20° S 03:31:58 28° SE 03:47:28 10° E visible
04 Sep 10.1 05:30:04 10° SW 05:47:37 44° SSE 06:04:27 10° ESE visible
05 Sep 10.3 02:28:09 20° SSE 02:31:52 21° SE 02:45:11 10° E visible
05 Sep 10.1 04:34:00 18° SSW 04:46:48 40° SSE 05:04:04 10° E visible
06 Sep 10.5 01:32:20 14° SE 01:32:20 14° SE 01:41:03 10° ESE visible
06 Sep 10.0 03:38:09 25° S 03:46:12 34° SSE 04:03:05 10° E visible
06 Sep 10.1 05:44:26 10° WSW 06:02:12 47° S 06:19:26 10° ESE visible
07 Sep 10.0 02:42:18 26° SSE 02:45:57 28° SE 03:01:23 10° E visible
07 Sep 10.0 04:48:08 19° SW 05:01:16 44° SSE 05:19:09 10° ESE visible
08 Sep 10.3 01:46:26 21° SE 01:46:26 21° SE 01:58:42 10° E visible
08 Sep 9.8 03:52:17 28° SSW 04:00:32 40° SSE 04:18:19 10° E visible
08 Sep 10.1 05:59:04 10° WSW 06:16:47 47° S 06:34:13 10° ESE visible
09 Sep 10.6 00:50:34 12° ESE 00:50:34 12° ESE 00:54:01 10° ESE visible
09 Sep 9.8 02:56:24 31° S 03:00:09 34° SSE 03:16:54 10° E visible
09 Sep 10.0 05:02:14 18° SW 05:15:48 47° S 05:34:01 10° ESE visible
10 Sep 10.0 02:00:33 27° SE 02:00:33 27° SE 02:14:50 10° E visible
10 Sep 9.7 04:06:23 29° SSW 04:14:59 44° SSE 04:33:17 10° ESE visible
11 Sep 10.3 01:04:41 18° ESE 01:04:41 18° ESE 01:11:50 10° E visible
11 Sep 9.6 03:10:31 35° S 03:14:28 39° SSE 03:32:02 10° E visible
11 Sep 9.9 05:16:21 17° WSW 05:30:23 47° S 05:48:41 10° ESE visible
